Time,TemperatureF,DewpointF,PressureIn,WindDirection,WindDirectionDegrees,WindSpeedMPH,WindSpeedGustMPH,Humidity,HourlyPrecipIn,Conditions,Clouds,dailyrainin,SolarRadiationWatts/m^2,SoftwareType,DateUTC
2013-07-22 00:02:00,66.0,64.0,29.84,South,181,0.0,2.0,94,0.00,,,0.04,0.000000,,2013-07-22 05:02:00,
2013-07-22 00:11:00,66.0,64.0,29.84,South,178,0.0,2.0,94,0.00,,,0.04,0.000000,,2013-07-22 05:11:00,
2013-07-22 00:22:00,65.0,63.0,29.84,South,178,0.0,1.0,94,0.00,,,0.04,0.000000,,2013-07-22 05:22:00,
2013-07-22 00:32:00,65.0,63.0,29.83,South,178,0.0,0.0,94,0.00,,,0.04,0.000000,,2013-07-22 05:32:00,
2013-07-22 00:43:00,65.0,63.0,29.83,South,178,0.0,0.0,94,0.00,,,0.04,0.000000,,2013-07-22 05:43:00,
2013-07-22 00:52:00,66.0,65.0,29.83,South,178,0.0,1.0,95,0.00,,,0.04,0.000000,,2013-07-22 05:52:00,
2013-07-22 01:01:00,65.0,63.0,29.83,South,178,0.0,0.0,94,0.00,,,0.04,0.000000,,2013-07-22 06:01:00,
2013-07-22 01:11:00,65.0,64.0,29.83,South,178,0.0,1.0,95,0.00,,,0.04,0.000000,,2013-07-22 06:11:00,
2013-07-22 01:22:00,65.0,64.0,29.83,South,178,1.0,2.0,95,0.00,,,0.04,0.000000,,2013-07-22 06:22:00,
2013-07-22 01:33:00,65.0,64.0,29.82,South,178,1.0,2.0,95,0.00,,,0.04,0.000000,,2013-07-22 06:33:00,
2013-07-22 01:43:00,65.0,64.0,29.82,South,177,0.0,3.0,95,0.00,,,0.04,0.000000,,2013-07-22 06:43:00,
2013-07-22 01:52:00,64.0,63.0,29.81,South,177,0.0,0.0,95,0.00,,,0.04,0.000000,,2013-07-22 06:52:00,
2013-07-22 02:01:00,64.0,63.0,29.80,South,177,0.0,1.0,95,0.00,,,0.04,0.000000,,2013-07-22 07:01:00,
2013-07-22 02:12:00,63.0,62.0,29.80,South,177,0.0,0.0,95,0.00,,,0.04,0.000000,,2013-07-22 07:12:00,
2013-07-22 02:22:00,63.0,62.0,29.81,South,177,0.0,0.0,95,0.00,,,0.04,0.000000,,2013-07-22 07:22:00,
2013-07-22 02:33:00,63.0,62.0,29.81,South,177,0.0,1.0,96,0.00,,,0.04,0.000000,,2013-07-22 07:33:00,
2013-07-22 02:43:00,63.0,62.0,29.81,South,177,0.0,3.0,96,0.00,,,0.04,0.000000,,2013-07-22 07:43:00,
2013-07-22 02:52:00,63.0,62.0,29.80,South,177,0.0,1.0,96,0.00,,,0.04,0.000000,,2013-07-22 07:52:00,
2013-07-22 03:02:00,63.0,62.0,29.80,South,177,0.0,0.0,96,0.00,,,0.04,0.000000,,2013-07-22 08:02:00,
2013-07-22 03:11:00,63.0,62.0,29.80,South,177,0.0,1.0,96,0.00,,,0.04,0.000000,,2013-07-22 08:11:00,
2013-07-22 03:22:00,63.0,62.0,29.79,South,177,0.0,2.0,96,0.00,,,0.04,0.000000,,2013-07-22 08:22:00,
2013-07-22 03:32:00,64.0,63.0,29.79,South,177,1.0,2.0,96,0.00,,,0.04,0.000000,,2013-07-22 08:32:00,
2013-07-22 03:43:00,64.0,63.0,29.79,South,177,1.0,3.0,96,0.00,,,0.04,0.000000,,2013-07-22 08:43:00,
2013-07-22 03:52:00,63.0,62.0,29.79,South,177,0.0,2.0,96,0.00,,,0.04,0.000000,,2013-07-22 08:52:00,
2013-07-22 04:02:00,64.0,63.0,29.79,South,177,0.0,1.0,96,0.00,,,0.04,0.000000,,2013-07-22 09:02:00,
2013-07-22 04:11:00,64.0,63.0,29.79,South,177,1.0,1.0,96,0.00,,,0.04,0.000000,,2013-07-22 09:11:00,
2013-07-22 04:22:00,64.0,63.0,29.79,South,177,0.0,1.0,97,0.00,,,0.04,0.000000,,2013-07-22 09:22:00,
2013-07-22 04:33:00,63.0,62.0,29.79,South,177,0.0,2.0,96,0.00,,,0.04,0.000000,,2013-07-22 09:33:00,
2013-07-22 04:42:00,63.0,62.0,29.78,South,177,0.0,0.0,97,0.00,,,0.04,0.000000,,2013-07-22 09:42:00,
2013-07-22 04:52:00,63.0,62.0,29.79,South,177,0.0,1.0,97,0.00,,,0.04,0.000000,,2013-07-22 09:52:00,
2013-07-22 05:02:00,63.0,62.0,29.79,South,177,0.0,1.0,97,0.00,,,0.04,0.000000,,2013-07-22 10:02:00,
2013-07-22 05:11:00,63.0,62.0,29.80,South,177,0.0,1.0,97,0.00,,,0.04,0.000000,,2013-07-22 10:11:00,
2013-07-22 05:22:00,63.0,62.0,29.80,South,177,0.0,2.0,97,0.00,,,0.04,0.000000,,2013-07-22 10:22:00,
2013-07-22 05:32:00,63.0,62.0,29.80,South,177,0.0,1.0,97,0.00,,,0.04,0.000000,,2013-07-22 10:32:00,
2013-07-22 05:43:00,63.0,62.0,29.80,South,177,1.0,2.0,97,0.00,,,0.04,0.000000,,2013-07-22 10:43:00,
2013-07-22 05:52:00,63.0,62.0,29.79,South,177,1.0,2.0,97,0.00,,,0.04,0.000000,,2013-07-22 10:52:00,
2013-07-22 06:02:00,62.0,61.0,29.79,South,173,1.0,3.0,97,0.00,,,0.04,0.000000,,2013-07-22 11:02:00,
2013-07-22 06:11:00,62.0,61.0,29.79,SE,138,1.0,3.0,97,0.00,,,0.04,0.000000,,2013-07-22 11:11:00,
2013-07-22 06:23:00,63.0,62.0,29.79,SSE,147,2.0,4.0,98,0.00,,,0.04,7.000000,,2013-07-22 11:23:00,
2013-07-22 06:32:00,63.0,62.0,29.78,ESE,116,1.0,4.0,97,0.00,,,0.04,12.000000,,2013-07-22 11:32:00,
2013-07-22 06:43:00,63.0,62.0,29.78,ESE,112,2.0,5.0,97,0.00,,,0.04,21.000000,,2013-07-22 11:43:00,
2013-07-22 06:52:00,63.0,62.0,29.78,SE,136,1.0,4.0,98,0.00,,,0.04,33.000000,,2013-07-22 11:52:00,
2013-07-22 07:02:00,64.0,63.0,29.78,SE,146,2.0,4.0,98,0.00,,,0.04,42.000000,,2013-07-22 12:02:00,
2013-07-22 07:11:00,64.0,63.0,29.78,SSE,159,2.0,6.0,98,0.00,,,0.04,62.000000,,2013-07-22 12:11:00,
2013-07-22 07:22:00,65.0,64.0,29.78,SSE,151,2.0,6.0,98,0.00,,,0.04,84.000000,,2013-07-22 12:22:00,
2013-07-22 07:32:00,65.0,64.0,29.78,SE,134,2.0,5.0,98,0.00,,,0.04,86.000000,,2013-07-22 12:32:00,
2013-07-22 07:43:00,66.0,65.0,29.78,SSE,147,3.0,6.0,98,0.00,,,0.04,91.000000,,2013-07-22 12:43:00,
2013-07-22 07:53:00,66.0,65.0,29.79,SSE,153,2.0,5.0,98,0.00,,,0.04,120.000000,,2013-07-22 12:53:00,
2013-07-22 08:01:00,67.0,66.0,29.78,SE,141,2.0,5.0,98,0.00,,,0.04,183.000000,,2013-07-22 13:01:00,
2013-07-22 08:11:00,68.0,67.0,29.79,SE,145,2.0,5.0,98,0.00,,,0.04,127.000000,,2013-07-22 13:11:00,
2013-07-22 08:22:00,69.0,68.0,29.80,SSE,153,2.0,5.0,97,0.01,,,0.05,116.000000,,2013-07-22 13:22:00,
2013-07-22 08:32:00,70.0,68.0,29.80,SSE,155,3.0,5.0,95,0.01,,,0.05,290.000000,,2013-07-22 13:32:00,
2013-07-22 08:43:00,72.0,70.0,29.79,ESE,121,3.0,6.0,92,0.01,,,0.05,278.000000,,2013-07-22 13:43:00,
2013-07-22 09:01:00,74.0,70.0,29.80,SE,136,4.0,8.0,86,0.01,,,0.05,316.000000,,2013-07-22 14:01:00,
2013-07-22 09:11:00,74.0,69.0,29.80,SSE,159,5.0,8.0,84,0.01,,,0.05,309.000000,,2013-07-22 14:11:00,
2013-07-22 09:22:00,75.0,69.0,29.80,SE,130,6.0,8.0,83,0.00,,,0.05,378.000000,,2013-07-22 14:22:00,
2013-07-22 10:11:00,80.0,72.0,29.80,SE,130,5.0,9.0,77,0.00,,,0.05,485.000000,,2013-07-22 15:11:00,
2013-07-22 10:22:00,80.0,72.0,29.80,SE,142,4.0,11.0,78,0.00,,,0.05,571.000000,,2013-07-22 15:22:00,
2013-07-22 10:43:00,81.0,72.0,29.79,SE,138,4.0,12.0,73,0.00,,,0.05,568.000000,,2013-07-22 15:43:00,
2013-07-22 10:52:00,81.0,72.0,29.78,SE,124,6.0,10.0,73,0.00,,,0.05,589.000000,,2013-07-22 15:52:00,
2013-07-22 11:01:00,82.0,72.0,29.78,SE,135,5.0,11.0,73,0.00,,,0.05,645.000000,,2013-07-22 16:01:00,
2013-07-22 11:11:00,83.0,73.0,29.79,South,187,4.0,7.0,73,0.00,,,0.05,650.000000,,2013-07-22 16:11:00,
2013-07-22 11:21:00,84.0,75.0,29.78,SSE,166,6.0,9.0,74,0.00,,,0.05,657.000000,,2013-07-22 16:21:00,
2013-07-22 11:32:00,84.0,74.0,29.78,SSW,195,2.0,10.0,72,0.00,,,0.05,682.000000,,2013-07-22 16:32:00,
2013-07-22 11:43:00,85.0,74.0,29.78,SSE,150,4.0,8.0,70,0.00,,,0.05,710.000000,,2013-07-22 16:43:00,
2013-07-22 11:52:00,85.0,74.0,29.78,SW,225,3.0,7.0,70,0.00,,,0.05,796.000000,,2013-07-22 16:52:00,
2013-07-22 12:11:00,86.0,74.0,29.77,SSW,193,2.0,6.0,68,0.00,,,0.05,884.000000,,2013-07-22 17:11:00,
2013-07-22 12:23:00,87.0,76.0,29.76,South,191,5.0,9.0,69,0.00,,,0.05,914.000000,,2013-07-22 17:23:00,
2013-07-22 12:32:00,87.0,76.0,29.77,South,170,6.0,10.0,69,0.00,,,0.05,1095.000000,,2013-07-22 17:32:00,
2013-07-22 12:43:00,88.0,77.0,29.76,South,183,5.0,11.0,70,0.00,,,0.05,1088.000000,,2013-07-22 17:43:00,
2013-07-22 13:14:00,88.0,76.0,29.75,SSE,161,5.0,10.0,68,0.00,,,0.03,1023.000000,,2013-07-22 18:14:00,
2013-07-22 13:26:00,89.0,77.0,29.75,SSW,200,7.0,10.0,68,0.00,,,0.03,942.000000,,2013-07-22 18:26:00,
2013-07-22 13:36:00,90.0,78.0,29.74,South,180,6.0,11.0,67,0.00,,,0.03,956.000000,,2013-07-22 18:36:00,
2013-07-22 13:49:00,90.0,78.0,29.74,SSW,194,7.0,12.0,68,0.00,,,0.03,932.000000,,2013-07-22 18:49:00,
2013-07-22 13:55:00,90.0,78.0,29.72,South,179,7.0,14.0,69,0.00,,,0.03,928.000000,,2013-07-22 18:55:00,
2013-07-22 14:05:00,90.0,78.0,29.73,SSE,153,6.0,18.0,67,0.00,,,0.03,1000.000000,,2013-07-22 19:05:00,
2013-07-22 14:15:00,89.0,76.0,29.72,South,183,6.0,12.0,66,0.00,,,0.01,345.000000,,2013-07-22 19:15:00,
2013-07-22 14:24:00,89.0,77.0,29.72,South,174,6.0,13.0,68,0.00,,,0.01,359.000000,,2013-07-22 19:24:00,
2013-07-22 14:45:00,89.0,77.0,29.73,South,172,7.0,11.0,67,0.00,,,0.01,926.000000,,2013-07-22 19:45:00,
2013-07-22 15:04:00,91.0,77.0,29.73,South,186,8.0,15.0,64,0.00,,,0.01,816.000000,,2013-07-22 20:04:00,
2013-07-22 15:16:00,91.0,77.0,29.73,SW,221,5.0,11.0,63,0.00,,,0.01,371.000000,,2013-07-22 20:16:00,
2013-07-22 15:22:00,92.0,77.0,29.72,SW,222,9.0,16.0,61,0.00,,,0.01,932.000000,,2013-07-22 20:22:00,
2013-07-22 15:32:00,92.0,76.0,29.72,SW,233,9.0,18.0,59,0.00,,,0.01,877.000000,,2013-07-22 20:32:00,
2013-07-22 15:43:00,91.0,74.0,29.72,SW,219,9.0,15.0,58,0.00,,,0.01,886.000000,,2013-07-22 20:43:00,
2013-07-22 15:52:00,91.0,75.0,29.72,SSW,213,10.0,18.0,59,0.00,,,0.01,745.000000,,2013-07-22 20:52:00,
2013-07-22 16:01:00,92.0,76.0,29.71,SW,217,7.0,17.0,60,0.00,,,0.01,809.000000,,2013-07-22 21:01:00,
2013-07-22 16:12:00,92.0,75.0,29.71,SW,223,11.0,17.0,58,0.00,,,0.01,793.000000,,2013-07-22 21:12:00,
2013-07-22 16:22:00,93.0,75.0,29.71,SW,219,9.0,15.0,57,0.00,,,0.01,765.000000,,2013-07-22 21:22:00,
2013-07-22 16:32:00,92.0,76.0,29.70,South,185,7.0,14.0,59,0.00,,,0.01,751.000000,,2013-07-22 21:32:00,
2013-07-22 16:43:00,93.0,75.0,29.70,SW,226,8.0,13.0,57,0.00,,,0.01,773.000000,,2013-07-22 21:43:00,
2013-07-22 16:52:00,92.0,74.0,29.70,South,178,10.0,16.0,56,0.00,,,0.01,561.000000,,2013-07-22 21:52:00,
2013-07-22 17:01:00,91.0,74.0,29.70,South,190,9.0,19.0,57,0.00,,,0.01,343.000000,,2013-07-22 22:01:00,
2013-07-22 17:11:00,90.0,74.0,29.70,South,175,7.0,14.0,60,0.00,,,0.01,362.000000,,2013-07-22 22:11:00,
2013-07-22 17:22:00,90.0,74.0,29.70,SSW,206,9.0,14.0,60,0.00,,,0.01,359.000000,,2013-07-22 22:22:00,
2013-07-22 17:32:00,90.0,74.0,29.69,SSW,193,8.0,11.0,59,0.00,,,0.01,229.000000,,2013-07-22 22:32:00,
2013-07-22 17:43:00,88.0,72.0,29.69,SSW,209,7.0,12.0,60,0.00,,,0.01,141.000000,,2013-07-22 22:43:00,
2013-07-22 17:52:00,88.0,73.0,29.68,SSW,192,9.0,13.0,61,0.00,,,0.01,100.000000,,2013-07-22 22:52:00,
2013-07-22 18:01:00,87.0,73.0,29.68,South,190,5.0,14.0,63,0.00,,,0.01,47.000000,,2013-07-22 23:01:00,
2013-07-22 18:11:00,86.0,73.0,29.69,SW,221,5.0,9.0,65,0.00,,,0.01,30.000000,,2013-07-22 23:11:00,
2013-07-22 18:22:00,85.0,73.0,29.68,SSW,194,4.0,7.0,67,0.00,,,0.01,21.000000,,2013-07-22 23:22:00,
2013-07-22 18:32:00,84.0,73.0,29.68,South,184,3.0,6.0,70,0.00,,,0.01,14.000000,,2013-07-22 23:32:00,
2013-07-22 18:42:00,83.0,73.0,29.68,South,180,3.0,7.0,72,0.00,,,0.01,9.000000,,2013-07-22 23:42:00,
2013-07-22 18:52:00,83.0,73.0,29.69,South,186,2.0,5.0,73,0.00,,,0.01,5.000000,,2013-07-22 23:52:00,
2013-07-22 19:01:00,82.0,73.0,29.68,South,188,1.0,5.0,74,0.00,,,0.01,0.000000,,2013-07-23 00:01:00,
2013-07-22 19:12:00,83.0,71.0,29.74,West,267,17.0,27.0,67,0.00,,,0.01,0.000000,,2013-07-23 00:12:00,
2013-07-22 20:11:00,70.0,-99.9,29.79,West,267,14.0,30.0,-999,0.15,,,0.16,0.000000,,2013-07-23 01:11:00,
2013-07-22 20:22:00,71.0,63.0,29.76,East,98,5.0,8.0,76,0.17,,,0.18,0.000000,,2013-07-23 01:22:00,
2013-07-22 20:32:00,70.0,64.0,29.77,WSW,248,5.0,14.0,81,0.17,,,0.18,0.000000,,2013-07-23 01:32:00,
2013-07-22 20:43:00,70.0,64.0,29.75,SSW,202,4.0,25.0,80,0.15,,,0.18,7.000000,,2013-07-23 01:43:00,
2013-07-22 20:53:00,70.0,64.0,29.74,SSE,153,9.0,18.0,82,0.14,,,0.19,0.000000,,2013-07-23 01:53:00,
2013-07-22 21:02:00,71.0,62.0,29.74,WSW,254,3.0,16.0,74,0.13,,,0.19,0.000000,,2013-07-23 02:02:00,
2013-07-22 21:11:00,72.0,64.0,29.73,SE,132,9.0,23.0,76,0.02,,,0.19,0.000000,,2013-07-23 02:11:00,
2013-07-22 21:22:00,71.0,63.0,29.75,South,188,15.0,20.0,75,0.01,,,0.19,0.000000,,2013-07-23 02:22:00,
2013-07-22 21:33:00,70.0,63.0,29.73,South,180,5.0,9.0,79,0.01,,,0.19,0.000000,,2013-07-23 02:33:00,
2013-07-22 21:43:00,69.0,63.0,29.75,South,186,9.0,15.0,82,0.01,,,0.19,0.000000,,2013-07-23 02:43:00,
2013-07-22 21:53:00,68.0,63.0,29.76,South,170,9.0,18.0,84,0.00,,,0.19,0.000000,,2013-07-23 02:53:00,
2013-07-22 22:01:00,68.0,64.0,29.75,South,191,7.0,14.0,86,0.00,,,0.19,0.000000,,2013-07-23 03:01:00,
2013-07-22 22:11:00,68.0,64.0,29.77,South,181,9.0,16.0,86,0.00,,,0.19,0.000000,,2013-07-23 03:11:00,
2013-07-22 22:22:00,68.0,63.0,29.77,SW,216,6.0,12.0,85,0.00,,,0.19,0.000000,,2013-07-23 03:22:00,
2013-07-22 22:33:00,69.0,62.0,29.77,WSW,238,8.0,16.0,79,0.00,,,0.19,0.000000,,2013-07-23 03:33:00,
2013-07-22 22:43:00,70.0,62.0,29.77,SSW,209,10.0,16.0,76,0.00,,,0.19,0.000000,,2013-07-23 03:43:00,
2013-07-22 22:52:00,70.0,62.0,29.77,SW,222,10.0,16.0,76,0.00,,,0.19,0.000000,,2013-07-23 03:52:00,
2013-07-22 23:01:00,69.0,62.0,29.77,SW,223,9.0,16.0,79,0.00,,,0.19,0.000000,,2013-07-23 04:01:00,
2013-07-22 23:11:00,69.0,63.0,29.76,SW,228,8.0,15.0,80,0.00,,,0.19,0.000000,,2013-07-23 04:11:00,
2013-07-22 23:32:00,68.0,63.0,29.75,West,266,7.0,13.0,83,0.00,,,0.19,0.000000,,2013-07-23 04:32:00,
2013-07-22 23:43:00,68.0,63.0,29.75,West,268,8.0,15.0,83,0.00,,,0.19,0.000000,,2013-07-23 04:43:00,
2013-07-22 23:53:00,68.0,63.0,29.75,West,269,8.0,15.0,83,0.00,,,0.19,0.000000,,2013-07-23 04:53:00,